Location: Sternwarte_Laufen
(47.9344°N, 12.9346°E)
Time: 15:28:32
(UTC+02:00)

ISS - Pass Details

Date: 07 May 2026
Orbit: 414 x 424 km, 51.6° (Epoch: 21 May)

Event Time Altitude Azimuth Distance (km) Brightness Sun altitude
Exits shadow 03:19:31 14° 295° (WNW) 1,254 -1.4 -18.6°
Maximum altitude 03:22:16 73° 20° (NNE) 442 -3.6 -18.4°
Drops below altitude 10° 03:25:38 10° 106° (ESE) 1,499 -0.7 -18.1°
Sets 03:27:44 0° 108° (ESE) 2,363 0.3 -17.8°
